Date String (YYYY-MM-DD hh:mm:ss) UTC,Instrument flags,Ambient pressure (hPa),Sample flow (lpm),Bypass flow (lpm),Sample temperature (°C),Ambient temperature (°C),ASC tube jacket temperature (°C),LED temperature (°C),Box temperature (°C),Sample RH (%),Span deviation,Mass concentration (μg/m³),Mass concentration (μg/m³),Mass concentration (μg/m³)
DateTimeUTC,F1_M11,P_M11,Q1_M11,Q2_M11,T1_M11,T2_M11,T3_M11,T4_M11,T5_M11,U1_M11,ZSPAN_M11,X0_M11,X2_M11,X1_M11
2022-07-27 14:00:00,,0828.5,4.99,0.00,32.1,27.9,00.0,40.3,32.5,34.9,0000.3,0015.14,0009.54,0008.61
2022-07-27 14:01:00,,0828.5,5.01,0.00,32.1,28.0,00.0,40.3,32.5,35.0,0000.7,0015.33,0009.60,0008.68
2022-07-27 14:02:00,,0828.4,4.99,0.00,32.1,28.2,00.0,40.3,32.5,35.4,0001.0,0015.48,0009.61,0008.69
2022-07-27 14:03:00,,0828.5,5.00,0.00,32.3,28.3,00.0,40.3,32.6,34.8,0000.9,0015.81,0009.60,0008.68
2022-07-27 14:04:00,,0828.5,5.01,0.00,32.4,28.5,00.0,40.3,32.7,34.2,0001.0,0015.82,0009.56,0008.66
2022-07-27 14:05:00,,0828.5,4.99,0.00,32.5,28.6,00.0,40.3,32.7,34.3,0001.1,0015.84,0009.52,0008.63
2022-07-27 14:06:00,,0828.5,5.01,0.00,32.5,28.7,00.0,40.3,32.7,34.6,0000.7,0016.11,0009.55,0008.60
2022-07-27 14:07:00,,0828.5,4.99,0.00,32.5,28.8,00.0,40.3,32.7,35.3,0000.6,0015.73,0009.56,0008.59
2022-07-27 14:08:00,,0828.9,5.00,0.00,32.6,28.9,00.0,40.4,32.8,34.3,0000.6,0015.58,0009.58,0008.55
2022-07-27 14:09:00,,0828.9,4.99,0.00,32.7,29.0,00.0,40.4,32.9,34.2,0000.9,0016.02,0009.61,0008.55
2022-07-27 14:10:00,,0828.7,5.01,0.00,32.8,29.1,00.0,40.5,32.9,34.5,0001.2,0016.33,0009.62,0008.56
2022-07-27 14:11:00,,0828.9,4.99,0.00,32.8,29.2,00.0,40.5,32.9,34.5,0001.2,0015.87,0009.63,0008.59
2022-07-27 14:12:00,,0828.9,4.99,0.00,32.7,29.2,00.0,40.5,32.9,34.8,0001.0,0015.75,0009.66,0008.63
2022-07-27 14:13:00,,0828.7,5.02,0.00,32.7,29.3,00.0,40.6,32.9,35.3,0000.7,0015.79,0009.75,0008.70
2022-07-27 14:14:00,,0829.2,5.00,0.00,32.9,29.1,00.0,40.6,33.1,34.5,0000.9,0015.65,0009.88,0008.78
2022-07-27 14:15:00,,0828.8,5.00,0.00,33.0,28.4,00.0,40.5,33.0,34.4,0000.9,0015.87,0010.00,0008.87
2022-07-27 14:16:00,,0828.7,4.99,0.00,32.9,28.0,00.0,40.5,32.9,34.7,0001.2,0015.93,0010.10,0008.96
2022-07-27 14:17:00,,0828.5,5.01,0.00,32.9,27.9,00.0,40.5,32.7,35.2,0001.7,0015.81,0010.16,0009.06
2022-07-27 14:18:00,,0828.7,5.00,0.00,32.9,27.9,00.0,40.6,32.7,34.8,0001.8,0015.64,0010.24,0009.14
2022-07-27 14:19:00,,0828.7,4.99,0.00,32.9,28.1,00.0,40.6,32.7,34.4,0001.8,0015.43,0010.29,0009.23
2022-07-27 14:20:00,,0828.7,5.01,0.00,32.9,28.2,00.0,40.6,32.7,34.8,0001.6,0015.13,0010.38,0009.31
2022-07-27 14:21:00,,0828.6,4.99,0.00,32.9,28.3,00.0,40.6,32.7,34.6,0001.4,0014.84,0010.45,0009.36
2022-07-27 14:22:00,,0828.5,5.01,0.00,32.8,28.5,00.0,40.6,32.7,34.5,0001.6,0014.97,0010.52,0009.40
2022-07-27 14:23:00,,0828.5,5.00,0.00,32.8,28.6,00.0,40.6,32.7,34.2,0001.7,0014.90,0010.53,0009.44
2022-07-27 14:24:00,,0828.5,5.00,0.00,32.7,28.7,00.0,40.7,32.7,34.3,0001.8,0014.92,0010.51,0009.45
2022-07-27 14:25:00,,0828.5,5.01,0.00,32.7,28.9,00.0,40.7,32.7,34.6,0001.8,0014.85,0010.51,0009.50
2022-07-27 14:26:00,,0828.5,5.00,0.00,32.6,29.0,00.0,40.7,32.8,34.8,0001.5,0014.67,0010.50,0009.55
2022-07-27 14:27:00,,0828.5,5.01,0.00,32.6,29.0,00.0,40.7,32.8,34.9,0001.1,0014.61,0010.48,0009.56
2022-07-27 14:28:00,,0828.5,4.99,0.00,32.6,29.1,00.0,40.7,32.9,35.0,0001.1,0014.83,0010.48,0009.58
2022-07-27 14:29:00,,0828.5,5.00,0.00,32.7,29.2,00.0,40.7,33.0,34.7,0000.8,0015.10,0010.47,0009.59
2022-07-27 14:30:00,,0828.8,5.01,0.00,32.8,29.3,00.0,40.7,33.1,34.5,0000.7,0015.20,0010.50,0009.60
2022-07-27 14:31:00,,0828.7,4.99,0.00,32.9,29.1,00.0,40.7,33.1,34.3,0000.6,0015.41,0010.50,0009.61
2022-07-27 14:32:00,,0828.6,5.01,0.00,32.9,28.4,00.0,40.6,32.9,34.1,0000.5,0015.41,0010.51,0009.64
2022-07-27 14:33:00,,0828.5,5.01,0.00,32.8,28.0,00.0,40.6,32.8,34.6,0000.6,0016.06,0010.59,0009.68
2022-07-27 14:34:00,,0828.5,4.99,0.00,32.7,27.9,00.0,40.6,32.7,34.8,0000.5,0016.24,0010.66,0009.75
2022-07-27 14:35:00,,0828.4,4.99,0.00,32.6,27.9,00.0,40.6,32.6,35.2,0000.5,0016.31,0010.77,0009.83
2022-07-27 14:36:00,,0828.4,5.00,0.00,32.7,28.1,00.0,40.6,32.8,35.4,0000.4,0016.19,0010.79,0009.85
2022-07-27 14:37:00,,0828.5,5.00,0.00,33.0,28.2,00.0,40.6,32.9,34.6,0000.7,0016.14,0010.74,0009.80
2022-07-27 14:38:00,,0828.4,4.99,0.00,33.2,28.4,00.0,40.6,32.9,34.0,0000.9,0016.26,0010.77,0009.79
2022-07-27 14:39:00,,0828.8,5.01,0.00,33.2,28.5,00.0,40.6,32.9,33.6,0000.9,0016.07,0010.83,0009.79
2022-07-27 14:40:00,,0829.0,5.02,0.00,33.2,28.7,00.0,40.7,32.9,34.2,0000.8,0017.14,0010.92,0009.84
2022-07-27 14:41:00,,0828.7,4.99,0.00,33.2,28.8,00.0,40.7,32.9,34.5,0001.0,0017.51,0010.95,0009.91
2022-07-27 14:42:00,,0828.7,5.01,0.00,33.2,28.9,00.0,40.8,32.9,34.2,0001.4,0017.27,0010.99,0010.00
2022-07-27 14:43:00,,0829.0,4.99,0.00,33.1,29.0,00.0,40.8,33.0,34.4,0001.6,0017.35,0011.12,0010.10
2022-07-27 14:44:00,,0829.1,5.01,0.00,33.1,29.1,00.0,40.9,32.9,34.7,0001.6,0016.71,0011.16,0010.19
2022-07-27 14:45:00,,0829.1,5.00,0.00,33.0,29.2,00.0,40.9,33.0,34.5,0001.7,0016.72,0011.23,0010.26
2022-07-27 14:46:00,,0829.0,5.00,0.00,33.0,29.1,00.0,40.9,33.0,35.0,0001.6,0016.82,0011.29,0010.33
2022-07-27 14:47:00,,0828.9,4.99,0.00,33.0,28.4,00.0,40.8,33.0,34.8,0001.5,0016.89,0011.35,0010.41
2022-07-27 14:48:00,,0828.9,5.01,0.00,33.0,28.0,00.0,40.8,32.9,34.4,0001.4,0017.23,0011.49,0010.54
2022-07-27 14:49:00,,0828.9,5.00,0.00,32.9,27.9,00.0,40.8,32.8,34.6,0001.4,0018.13,0011.59,0010.66
2022-07-27 14:50:00,,0828.9,5.01,0.00,32.8,28.0,00.0,40.7,32.7,36.1,0001.5,0018.54,0011.63,0010.74
2022-07-27 14:51:00,,0829.0,5.00,0.00,32.9,28.1,00.0,40.7,32.8,35.9,0001.5,0017.55,0011.67,0010.79
2022-07-27 14:52:00,,0829.1,5.01,0.00,33.1,28.2,00.0,40.7,33.0,34.6,0001.4,0017.17,0011.68,0010.78
2022-07-27 14:53:00,,0829.2,5.00,0.00,33.2,28.4,00.0,40.7,33.0,34.7,0001.3,0017.32,0011.67,0010.76
2022-07-27 14:54:00,,0829.1,5.00,0.00,33.2,28.6,00.0,40.8,32.9,34.0,0001.4,0017.52,0011.63,0010.72
2022-07-27 14:55:00,,0829.1,5.00,0.00,33.2,28.7,00.0,40.8,32.9,34.3,0001.5,0017.91,0011.66,0010.71
2022-07-27 14:56:00,,0829.1,5.00,0.00,33.2,28.8,00.0,40.8,32.9,34.2,0001.5,0017.99,0011.70,0010.72
2022-07-27 14:57:00,,0829.1,4.99,0.00,33.1,28.9,00.0,40.9,32.9,34.6,0001.6,0017.93,0011.69,0010.74
2022-07-27 14:58:00,,0828.8,4.99,0.00,33.1,29.1,00.0,40.9,33.0,34.8,0001.5,0017.98,0011.75,0010.81
2022-07-27 14:59:00,,0828.7,5.00,0.00,33.1,29.1,00.0,40.9,33.0,34.6,0001.4,0017.78,0011.77,0010.85
